Time,TemperatureF,DewpointF,PressureIn,WindDirection,WindDirectionDegrees,WindSpeedMPH,WindSpeedGustMPH,Humidity,HourlyPrecipIn,Conditions,Clouds,dailyrainin,SoftwareType,DateUTC
2013-12-31 00:42:00,50.0,30.0,29.99,NNE,32,1.0,-999.0,46,-99.99,,,-99.99,,2013-12-31 08:42:00,
2013-12-31 00:52:00,50.0,30.0,29.99,NNE,32,1.0,-999.0,46,-99.99,,,-99.99,,2013-12-31 08:52:00,
2013-12-31 01:01:00,50.0,30.0,29.99,NNE,32,1.0,-999.0,46,-99.99,,,-99.99,,2013-12-31 09:01:00,
2013-12-31 06:43:00,46.0,27.0,29.97,NNE,32,0.0,-999.0,47,-99.99,,,-99.99,,2013-12-31 14:43:00,
2013-12-31 06:52:00,46.0,27.0,29.97,NNE,32,0.0,-999.0,47,-99.99,,,-99.99,,2013-12-31 14:52:00,
2013-12-31 07:02:00,46.0,27.0,29.97,NNE,32,0.0,-999.0,47,-99.99,,,-99.99,,2013-12-31 15:02:00,
2013-12-31 09:42:00,48.0,32.0,30.01,NE,41,0.0,-999.0,54,-99.99,,,-99.99,,2013-12-31 17:42:00,
2013-12-31 09:53:00,48.0,32.0,30.01,NE,41,0.0,-999.0,54,-99.99,,,-99.99,,2013-12-31 17:53:00,
2013-12-31 10:02:00,48.0,32.0,30.01,NE,41,0.0,-999.0,54,-99.99,,,-99.99,,2013-12-31 18:02:00,
2013-12-31 12:42:00,58.0,36.0,29.98,South,169,2.0,-999.0,44,-99.99,,,-99.99,,2013-12-31 20:42:00,
2013-12-31 12:53:00,58.0,36.0,29.98,South,169,2.0,-999.0,44,-99.99,,,-99.99,,2013-12-31 20:53:00,
2013-12-31 13:02:00,58.0,36.0,29.98,South,169,2.0,-999.0,44,-99.99,,,-99.99,,2013-12-31 21:02:00,
2013-12-31 15:43:00,63.0,28.0,29.93,West,266,1.0,-999.0,26,-99.99,,,-99.99,,2013-12-31 23:43:00,
2013-12-31 15:53:00,63.0,28.0,29.93,West,266,1.0,-999.0,26,-99.99,,,-99.99,,2013-12-31 23:53:00,
2013-12-31 16:02:00,63.0,28.0,29.93,West,266,1.0,-999.0,26,-99.99,,,-99.99,,2014-01-01 00:02:00,
2013-12-31 18:42:00,53.0,25.0,29.93,South,191,0.0,-999.0,33,-99.99,,,-99.99,,2014-01-01 02:42:00,
2013-12-31 18:52:00,53.0,25.0,29.93,South,191,0.0,-999.0,33,-99.99,,,-99.99,,2014-01-01 02:52:00,
2013-12-31 19:02:00,53.0,25.0,29.93,South,191,0.0,-999.0,33,-99.99,,,-99.99,,2014-01-01 03:02:00,
2013-12-31 21:43:00,51.0,21.0,29.93,NE,41,0.0,-999.0,31,-99.99,,,-99.99,,2014-01-01 05:43:00,
2013-12-31 21:52:00,51.0,21.0,29.93,NE,41,0.0,-999.0,31,-99.99,,,-99.99,,2014-01-01 05:52:00,
2013-12-31 22:02:00,51.0,21.0,29.93,NE,41,0.0,-999.0,31,-99.99,,,-99.99,,2014-01-01 06:02:00,